Theta_e
320 320 321 322 323 323 324 324 325 325 326 326 326 326 327 328 328 328 328 327 325 323 322 321 320 320 319 316 313 312 310 309 306 299 295 294 292 292 291 290 290 291 290 289 289 288 288 288 288 288 287 287 287 287 287 286 286 286 285 286 286 286 286 288 290 290 289 288 287 287 287 286 286 286 286 285 285 285 285 285 285 285 285 285 285
317 318 319 320 321 322 323 324 324 324 325 325 325 326 326 327 328 328 328 326 324 323 323 321 320 320 319 315 312 309 308 307 303 297 294 293 292 291 291 290 290 290 290 289 288 288 288 288 288 287 287 287 287 287 287 286 286 286 285 285 286 286 285 286 288 288 289 288 287 287 287 286 286 286 286 285 285 285 285 285 285 285 285 285 285
314 315 316 318 319 321 322 322 323 324 324 325 325 325 325 327 328 328 327 325 322 322 322 321 320 320 318 313 309 307 307 305 299 294 293 292 291 291 290 290 290 290 289 289 288 288 288 288 288 287 287 287 287 286 286 286 285 285 285 285 285 285 284 285 286 287 287 287 287 287 287 286 286 286 285 285 285 285 285 284 284 284 284 284 284
311 311 312 314 316 318 320 321 322 323 324 324 325 324 325 325 326 327 326 323 321 321 320 320 319 319 315 310 306 305 304 300 295 293 292 291 291 291 290 289 289 289 289 288 288 288 288 288 287 287 287 287 287 286 286 286 285 285 285 285 285 284 284 284 284 285 286 286 287 286 286 286 286 285 285 285 285 284 284 284 284 284 284 283 284
309 309 310 310 312 315 318 320 322 322 323 323 323 323 324 324 324 325 324 322 321 320 318 318 319 317 313 307 304 303 300 296 294 292 291 291 291 290 290 289 289 288 288 288 288 288 287 287 287 287 287 286 286 286 286 285 285 285 284 284 284 283 284 284 285 285 285 286 286 286 285 285 285 285 285 284 284 284 284 284 284 283 283 283 283
309 309 309 310 311 313 316 318 320 321 322 322 322 322 322 322 322 323 323 321 321 319 317 317 317 315 310 304 302 300 297 294 293 291 291 290 290 290 289 289 288 288 288 288 288 288 287 287 287 287 287 286 286 286 285 285 285 284 284 283 283 283 284 285 285 285 285 285 285 285 285 285 285 285 285 284 283 283 283 283 283 282 282 282 283
309 310 311 312 313 314 315 317 318 320 320 320 321 320 320 320 320 321 321 320 319 318 317 316 315 312 307 302 300 297 295 293 292 291 290 290 289 289 289 288 288 288 288 288 287 287 287 287 287 287 286 286 286 285 285 285 284 284 283 283 283 283 284 284 284 284 284 285 285 285 285 285 284 284 284 283 283 283 283 282 282 282 282 282 283
310 312 312 313 314 315 316 317 318 319 319 319 319 319 319 318 318 318 318 318 319 319 317 316 313 308 303 300 298 295 293 292 291 290 290 289 289 289 288 288 288 288 288 287 287 287 287 287 286 286 286 286 285 285 285 284 284 283 283 283 283 284 284 284 284 284 284 284 284 284 284 284 284 284 283 283 283 283 282 281 281 282 282 282 282
311 312 312 312 314 315 316 317 317 317 317 316 316 316 316 316 315 315 316 317 317 317 317 316 311 304 301 298 296 293 292 291 290 290 290 289 289 288 288 288 288 288 288 287 287 287 286 286 286 286 286 285 285 285 285 284 283 283 283 283 283 283 283 283 283 283 283 283 283 283 283 283 283 283 283 282 282 282 281 281 281 281 282 281 281
311 311 311 311 312 314 314 314 314 314 314 313 313 313 314 314 314 314 315 315 313 314 315 312 307 302 299 296 294 292 291 291 290 290 290 289 289 288 288 288 287 288 287 287 287 286 286 286 286 285 285 285 285 285 284 284 283 282 282 282 283 283 282 282 283 283 283 283 283 283 282 283 283 282 282 282 282 281 281 281 281 281 281 281 280
310 310 310 310 311 312 312 311 311 310 310 310 311 312 312 312 312 313 314 313 311 311 311 307 302 300 298 295 293 291 290 290 290 289 289 289 289 288 288 288 287 287 287 287 287 286 286 286 285 285 285 285 284 284 283 283 283 282 281 281 281 281 281 282 282 282 282 282 282 282 282 282 282 282 282 281 281 280 280 281 281 281 280 280 279
309 310 309 309 310 310 310 309 308 309 310 310 310 310 310 311 311 312 313 311 309 308 306 303 299 298 296 293 291 290 290 289 289 289 288 288 288 288 288 287 287 287 287 287 286 286 285 285 285 285 285 284 284 283 283 283 282 282 281 280 280 280 280 281 281 281 281 281 281 281 281 281 281 282 281 281 280 280 280 280 280 280 279 279 279
309 308 308 309 309 309 308 307 306 308 310 311 310 310 310 310 311 311 310 308 306 305 302 299 297 295 293 291 290 290 289 289 288 288 288 287 287 287 287 287 287 287 287 286 286 286 285 285 285 285 284 284 283 283 283 283 282 282 281 281 280 280 279 279 280 280 280 281 281 281 281 281 281 281 280 280 280 280 280 280 279 279 278 278 278
308 308 308 307 308 307 307 306 306 308 308 309 309 309 309 309 308 307 306 305 303 301 298 296 294 293 291 290 290 289 288 288 288 287 287 287 287 287 287 287 287 286 286 286 286 285 285 285 285 284 284 284 283 283 283 283 282 282 281 280 280 280 280 279 279 279 280 280 281 281 281 281 281 280 279 279 279 279 279 279 278 278 278 278 277
306 306 307 306 307 307 306 305 306 307 307 307 308 308 307 306 305 304 304 303 301 298 295 294 292 291 290 289 289 288 288 288 287 287 287 287 287 286 286 286 286 286 286 285 285 285 285 285 284 284 284 283 283 283 283 282 282 281 280 280 280 279 279 279 279 279 280 280 280 280 280 280 279 279 279 279 279 279 278 277 277 277 277 277 277
305 305 305 305 306 306 306 305 305 305 306 306 305 305 304 303 303 303 300 298 296 295 293 292 291 290 289 289 288 288 287 287 287 287 287 287 286 286 286 286 286 285 285 285 285 285 285 284 284 284 284 284 283 283 282 282 282 281 280 279 279 279 279 279 279 279 279 280 280 279 279 278 278 279 279 278 278 277 277 277 277 277 276 276 276
304 304 303 303 305 306 306 306 305 305 304 304 303 302 302 301 301 299 297 294 292 292 291 290 289 289 288 288 288 288 287 287 287 287 287 286 286 286 286 285 285 285 285 285 285 285 285 284 284 284 284 284 283 283 282 281 281 280 279 279 278 278 278 279 279 278 279 279 279 278 278 277 278 278 278 277 277 276 276 276 276 276 275 275 276
302 302 301 302 303 304 304 305 304 304 303 302 302 301 300 299 297 295 294 292 291 290 289 289 288 288 288 288 288 288 287 287 286 286 286 286 286 286 285 285 285 285 285 285 285 284 285 285 284 284 284 284 283 283 282 281 281 280 279 279 278 278 278 279 278 278 278 279 279 278 277 277 277 277 276 275 276 276 276 276 275 274 275 275 275
300 300 300 300 301 302 303 303 303 303 302 301 300 299 297 296 294 292 291 290 289 289 288 288 287 287 287 287 287 288 288 287 286 286 286 286 286 285 285 285 285 285 285 285 284 284 285 285 284 284 284 283 283 283 282 281 281 280 279 278 278 278 278 278 277 277 278 278 278 277 276 276 276 275 275 275 275 275 275 275 274 274 274 274 274
298 299 299 299 299 300 301 302 302 301 301 299 298 296 294 293 292 290 289 288 288 288 287 287 287 287 287 287 287 287 287 287 286 286 286 286 285 285 285 285 285 285 285 285 285 285 285 284 284 283 283 283 283 282 282 281 280 280 279 278 278 278 278 277 277 277 278 277 276 275 275 275 275 274 274 274 275 275 275 274 273 273 273 273 273
297 298 298 298 298 299 300 301 300 300 299 298 296 294 293 292 291 289 288 287 287 287 286 286 286 286 286 286 286 286 286 287 286 285 285 285 285 285 285 285 285 285 285 285 285 286 285 284 284 283 283 283 283 282 281 281 280 279 278 277 277 277 277 277 278 278 277 276 275 274 275 275 274 274 274 274 275 275 274 274 273 273 273 272 272
297 298 298 297 298 299 299 299 299 298 297 296 295 293 292 291 290 289 288 287 286 286 285 285 285 285 285 285 285 285 285 286 286 286 285 285 285 285 284 285 285 285 285 285 286 286 285 284 283 283 283 283 282 281 281 281 280 279 278 278 278 278 278 277 277 277 275 274 274 274 274 274 274 274 274 274 274 274 274 273 273 272 272 272 272
297 297 297 297 297 297 298 297 297 296 296 295 294 293 291 289 288 287 287 286 285 284 284 284 283 284 284 284 284 285 285 285 285 285 285 285 285 284 284 284 285 285 285 286 286 286 284 284 283 283 283 282 281 281 281 281 280 279 279 279 279 278 278 277 276 276 275 274 273 274 274 274 273 273 273 273 274 273 273 273 273 272 273 273 273
296 296 296 296 296 296 296 295 295 294 294 293 292 291 290 288 287 286 285 285 284 283 283 282 282 282 283 283 283 284 284 284 284 285 285 284 284 284 284 284 284 285 285 286 286 285 284 284 284 283 283 282 281 281 281 280 279 279 279 279 278 278 277 276 276 275 274 273 273 273 273 273 273 272 273 273 273 273 273 273 272 273 273 274 274
296 295 295 295 295 295 294 293 293 293 292 292 291 290 288 287 285 285 284 284 283 283 282 281 282 282 282 283 283 283 283 284 284 284 284 284 283 283 283 284 284 285 286 285 284 283 283 283 283 283 282 281 280 280 280 279 279 279 279 278 278 277 276 276 276 275 273 272 272 272 272 272 272 272 272 272 272 273 273 273 273 273 273 274 274
295 295 295 294 294 293 293 292 291 291 290 290 290 289 289 287 285 284 284 283 283 283 282 281 281 281 282 282 282 282 283 283 283 283 283 283 283 283 283 284 284 285 285 284 282 282 282 282 282 281 281 280 280 280 279 278 278 278 278 278 277 276 276 276 276 274 272 272 271 270 270 271 271 271 271 272 273 273 273 273 273 273 273 274 274
295 294 294 293 292 292 292 291 290 289 289 289 288 288 288 287 286 284 283 283 282 282 282 282 281 281 282 282 282 282 282 282 282 282 282 282 282 282 283 283 283 284 284 282 280 280 281 281 280 280 280 279 279 279 278 278 277 277 277 277 276 276 275 276 275 274 273 272 272 271 270 271 271 271 272 272 273 273 273 272 272 272 273 273 273
294 294 293 293 292 291 291 291 290 289 288 288 287 287 286 286 286 285 285 285 284 283 282 282 282 283 283 282 281 280 280 281 283 283 283 283 283 282 282 282 283 284 284 281 279 280 280 280 279 279 279 279 278 278 277 277 276 276 276 276 276 275 275 275 274 273 272 272 272 271 270 270 270 271 271 272 273 273 273 272 271 272 272 272 273
293 293 292 291 291 290 289 289 289 289 288 287 287 287 287 286 286 286 286 286 285 284 284 283 284 285 284 284 282 281 280 282 285 285 285 284 284 285 286 287 286 285 283 280 279 280 279 279 278 278 278 278 277 277 276 276 276 275 275 275 275 275 274 274 273 273 273 272 271 270 269 269 269 270 271 271 272 272 272 272 271 271 271 271 272
291 291 290 290 289 289 288 288 288 287 287 287 286 285 285 285 285 285 285 285 284 284 283 283 284 284 283 283 284 284 284 285 286 285 284 284 283 285 288 288 287 284 281 279 279 279 278 277 277 277 277 277 277 276 276 275 275 275 275 274 274 274 274 274 273 273 273 272 271 269 268 268 269 269 270 271 271 272 272 272 271 271 271 271 272
291 290 290 289 289 288 288 287 287 286 286 286 285 284 283 283 283 283 283 283 283 282 282 282 283 283 282 282 283 283 284 285 285 284 283 283 283 283 284 284 284 282 280 278 278 278 277 277 277 277 277 277 276 276 275 275 274 274 274 274 274 274 274 273 273 273 272 271 270 269 268 268 268 269 269 270 270 271 271 271 271 271 271 271 271
291 290 290 289 289 288 287 286 286 285 285 284 284 283 282 282 282 282 282 282 282 282 282 282 282 282 282 282 282 282 282 283 283 283 282 282 281 281 282 282 282 281 279 277 277 277 277 277 277 277 276 276 276 276 275 275 275 274 274 274 274 273 273 273 273 273 272 271 269 268 267 267 267 268 268 269 270 271 271 271 271 271 271 271 271
290 289 289 289 288 287 286 285 285 285 284 284 283 282 282 281 281 282 282 281 281 281 281 281 281 281 281 281 281 282 282 282 282 282 281 281 280 280 281 281 280 279 278 277 277 277 277 277 277 277 277 276 276 275 275 275 275 275 274 274 273 273 273 273 272 272 272 270 269 268 267 267 267 267 267 268 269 270 271 271 270 270 270 271 271
287 287 287 287 287 286 285 285 285 284 284 283 283 282 282 281 281 281 281 281 281 280 280 280 280 280 280 281 281 281 281 281 281 281 281 281 280 280 280 280 279 278 278 277 276 276 276 276 276 276 276 276 276 275 275 275 275 274 274 273 273 273 273 272 272 272 271 270 269 268 267 267 266 267 267 267 268 269 270 270 270 270 270 270 271
286 286 285 285 285 285 284 284 284 284 283 283 283 282 282 281 281 280 280 280 281 280 280 280 280 280 280 280 280 280 280 280 280 280 280 281 281 281 280 279 279 278 278 277 276 276 276 276 277 276 276 276 276 275 275 275 274 274 274 273 273 272 272 272 271 271 271 270 269 268 267 266 266 267 267 267 267 268 269 270 270 269 269 269 270
285 285 284 284 284 283 283 283 283 283 283 282 282 281 281 280 280 279 279 279 280 280 280 280 280 280 279 279 279 279 279 279 279 279 280 281 281 280 279 279 279 278 277 276 276 276 276 276 277 276 276 276 276 275 275 274 274 274 273 272 272 272 271 271 271 271 271 270 269 268 268 267 266 266 266 266 267 268 269 269 269 269 269 269 269
284 283 283 283 283 282 282 282 282 282 281 281 281 280 280 279 279 278 278 279 279 279 280 280 279 279 279 279 279 279 279 279 279 280 280 280 280 280 279 279 279 278 277 277 277 276 276 276 276 276 276 276 275 275 274 274 273 273 272 272 272 271 271 271 271 271 271 270 269 268 268 268 267 266 266 266 266 267 268 268 268 268 268 268 268
283 282 282 282 282 281 281 281 281 281 280 280 280 279 279 278 278 278 278 278 278 278 279 279 278 278 279 279 278 278 278 279 280 280 280 280 280 279 279 278 278 277 277 277 277 276 276 276 276 276 275 275 275 275 274 273 273 272 272 271 271 271 270 270 270 270 271 270 269 268 269 268 268 267 266 265 266 267 267 267 267 268 267 268 268
281 281 281 281 280 280 280 280 279 279 279 279 279 278 278 277 277 277 277 277 277 277 278 278 278 278 278 278 278 278 278 278 279 279 279 279 279 279 278 277 276 276 275 276 276 276 276 276 276 276 275 275 275 274 274 273 273 272 271 271 271 270 270 270 270 270 270 269 269 269 269 269 268 267 266 265 265 266 266 266 267 267 267 267 268
280 280 280 280 279 279 279 278 278 278 278 277 277 277 277 276 276 276 276 276 276 276 277 277 277 277 277 278 278 278 277 278 278 278 278 278 278 278 278 277 276 275 274 274 275 276 276 276 276 276 275 275 274 274 273 273 272 271 271 270 270 270 270 270 270 270 269 269 269 269 269 269 268 268 267 266 265 265 265 266 266 266 266 267 267
279 279 279 278 278 278 278 277 277 277 277 276 276 275 275 275 275 275 275 275 275 275 275 276 276 276 276 277 277 277 277 278 278 278 278 278 278 278 277 277 277 276 274 273 274 276 276 275 275 275 275 274 274 273 273 272 271 271 271 270 270 270 269 269 269 269 269 269 269 270 270 269 268 268 267 266 266 266 265 265 266 266 266 266 266
279 279 278 278 278 277 277 277 276 276 275 275 275 274 274 274 274 274 274 274 274 274 274 274 275 275 275 275 276 276 276 276 277 277 277 277 277 277 277 277 277 277 276 274 274 275 276 275 275 275 274 274 274 273 272 272 271 271 271 270 270 270 269 269 269 269 268 269 269 270 269 268 268 267 267 267 267 267 266 265 265 265 265 266 266
278 279 278 278 278 277 276 276 275 275 274 274 274 273 273 273 273 273 272 272 272 272 273 273 273 274 274 274 274 274 274 275 275 276 276 276 276 276 276 276 276 276 276 274 274 275 275 275 274 274 274 274 274 273 273 272 272 271 271 270 270 270 269 269 269 268 268 268 268 269 268 268 267 267 267 267 267 267 266 265 264 264 265 265 265
278 278 278 277 277 276 275 274 273 273 273 273 272 272 272 272 272 271 271 271 271 271 271 272 272 272 272 273 273 273 273 273 274 274 274 275 275 275 275 275 275 275 275 274 274 274 274 274 274 274 273 273 273 272 272 272 272 271 271 270 270 270 270 269 269 269 268 268 268 268 267 267 267 267 267 266 266 267 266 266 265 265 264 264 265
276 276 275 275 274 273 273 273 272 272 271 271 271 270 271 271 271 270 270 270 270 270 270 270 271 271 271 271 271 271 272 272 272 273 273 273 274 274 274 274 274 274 274 274 273 274 274 274 273 273 273 272 272 272 271 271 271 270 270 270 270 270 270 269 268 268 268 267 267 267 266 267 267 267 267 266 266 266 266 266 265 265 264 264 264
274 274 273 273 272 272 272 272 271 271 270 270 269 269 269 269 269 269 269 269 269 269 269 269 269 270 270 270 270 270 270 271 271 271 271 272 272 272 273 273 273 273 272 272 272 273 273 273 273 272 272 272 272 271 271 271 270 270 270 270 269 269 269 268 267 267 267 267 267 266 265 265 266 266 266 266 266 266 265 265 265 265 264 264 264
272 272 272 272 271 271 271 271 271 270 269 269 268 268 268 268 268 268 268 268 268 268 268 268 268 269 269 269 269 269 269 269 270 270 270 270 271 271 271 271 271 271 271 271 271 272 272 272 272 272 272 271 271 271 270 270 270 269 269 269 269 268 268 267 267 266 266 266 266 265 265 265 264 264 265 265 265 265 265 264 264 264 264 264 264
271 271 271 271 270 270 270 270 269 268 268 268 267 267 267 267 267 267 267 267 267 267 267 267 268 268 268 268 268 268 268 268 269 269 269 269 269 270 270 270 270 270 270 270 270 271 271 271 271 271 271 271 271 270 270 269 269 269 269 268 268 268 267 267 267 266 266 266 265 265 265 264 264 263 264 265 265 264 264 264 264 264 264 264 264
270 269 269 269 269 268 268 268 267 267 266 266 266 266 266 266 266 266 266 266 266 266 266 267 267 267 267 267 267 267 267 268 268 268 268 268 268 269 269 269 269 269 269 269 269 270 270 270 271 271 271 271 270 270 269 269 269 268 268 268 268 268 267 267 267 266 266 266 265 265 265 265 264 264 264 265 265 264 263 263 263 263 263 263 264
268 268 268 267 267 267 267 267 266 266 265 264 264 264 264 264 265 265 265 265 265 265 265 266 266 266 266 266 266 267 267 267 267 267 267 267 268 268 268 268 268 268 268 268 268 269 269 270 270 271 271 271 270 269 269 269 269 268 268 268 268 268 267 267 267 267 267 266 266 266 265 265 264 264 265 265 265 264 263 263 263 263 262 263 263
267 267 267 266 266 266 266 265 265 264 264 264 264 264 264 264 264 264 264 264 264 264 265 265 265 265 265 266 266 266 266 266 266 266 266 267 267 267 267 267 267 267 267 268 268 268 269 269 270 270 270 270 270 269 269 269 269 268 268 268 267 268 268 268 268 268 267 266 266 266 266 265 264 265 266 266 265 264 264 263 263 262 262 262 263
Wind_Speed
28 29 29 30 30 31 31 31 32 31 30 29 31 33 34 35 35 36 35 35 35 32 30 31 29 23 19 19 22 24 25 26 26 25 25 23 23 22 21 20 18 16 14 13 11 10 8 7 6 5 4 3 2 2 3 4 5 5 6 5 5 6 5 5 8 13 17 19 21 23 25 28 29 28 32 37 37 34 33 32 29 29 28 26 26
24 27 28 28 29 29 30 30 31 31 31 31 32 33 34 36 36 35 34 35 36 34 31 31 28 23 21 21 24 26 27 28 27 27 26 24 23 22 21 20 18 16 15 14 13 11 9 7 6 5 4 2 1 2 3 4 5 5 6 6 6 7 7 6 8 11 15 19 21 21 20 23 26 27 29 34 36 34 31 29 27 25 26 27 26
18 21 24 25 27 27 28 29 30 31 33 33 34 34 35 36 37 35 34 36 37 34 32 32 28 23 22 23 25 28 29 29 28 27 26 25 24 23 21 20 17 16 15 14 13 11 9 7 5 4 3 2 2 2 3 4 5 5 6 7 7 8 8 7 8 9 13 19 20 18 19 21 23 25 26 27 30 31 29 28 27 25 27 29 29
16 18 20 22 25 26 27 28 29 31 33 34 35 35 35 36 37 35 34 36 36 33 32 31 26 22 23 26 28 30 31 30 29 27 26 25 24 23 21 19 17 16 15 13 12 10 8 6 5 3 2 1 2 3 4 5 5 6 7 8 7 8 9 8 8 8 12 17 18 17 19 20 20 22 23 25 27 27 25 26 27 26 27 28 28
17 18 18 20 24 26 27 28 29 31 33 33 34 35 35 36 36 35 35 35 34 34 33 29 24 23 26 29 31 33 32 31 30 28 26 25 24 22 21 19 17 16 14 12 11 9 8 6 4 2 1 0 1 3 4 5 6 6 7 7 6 7 8 7 7 8 10 15 18 18 18 18 18 18 19 23 29 29 27 25 26 26 27 28 27
17 18 18 20 22 25 27 28 29 30 32 32 33 34 35 36 36 36 36 36 35 34 32 27 23 25 28 32 34 34 33 31 30 28 27 25 23 22 20 19 18 16 14 12 10 9 7 5 3 2 1 0 1 3 4 5 6 6 6 6 6 6 6 6 7 8 10 12 16 18 18 18 18 18 17 19 24 27 30 32 32 29 29 30 30
17 18 19 21 23 25 27 28 28 29 30 31 32 33 34 35 36 37 37 38 37 35 29 25 24 27 31 34 35 34 33 31 30 28 27 25 24 22 21 20 18 16 14 12 10 8 6 4 3 2 1 1 2 3 4 5 5 5 6 5 5 5 5 6 7 8 10 11 13 16 17 17 18 18 18 18 18 20 23 30 35 35 32 31 31
18 19 21 23 25 26 27 27 28 29 29 30 31 32 34 35 36 37 38 38 36 32 27 25 26 30 33 35 35 34 33 32 31 29 27 26 24 23 21 20 18 16 14 12 10 8 6 4 3 2 1 1 2 3 4 4 4 4 4 5 4 4 5 7 7 8 9 11 12 14 15 17 17 17 18 18 20 20 20 23 28 31 33 32 30
19 21 22 24 25 25 26 27 28 28 29 30 31 32 32 33 34 36 37 36 34 30 27 27 30 34 36 36 35 34 33 32 31 29 28 26 25 23 21 19 17 15 13 12 10 8 6 4 3 2 1 2 3 4 4 4 3 2 3 3 3 4 5 6 7 7 8 10 12 13 14 15 16 18 19 19 20 22 22 22 24 26 30 33 30
20 20 22 22 23 24 24 25 27 28 28 29 30 31 32 33 35 36 35 33 31 30 28 30 34 37 37 36 35 34 33 32 30 28 27 26 24 23 20 18 16 14 13 12 10 8 6 5 4 2 2 2 3 4 4 4 4 3 2 2 2 3 5 6 6 6 8 9 11 13 14 14 15 17 20 20 20 21 22 23 24 26 27 30 31
20 21 21 22 23 23 23 24 25 26 27 28 29 30 32 34 35 34 32 31 30 30 31 34 37 38 38 37 36 34 33 31 29 27 25 24 23 22 20 18 16 14 12 11 10 8 7 5 4 3 3 2 2 3 3 4 5 4 2 2 2 3 4 5 6 6 7 8 10 12 13 15 16 17 19 20 20 21 22 22 22 24 24 23 26
21 21 21 22 22 23 24 24 25 25 25 26 28 29 31 32 31 31 31 31 31 32 34 36 38 38 37 37 36 35 33 30 29 27 25 24 22 20 19 18 16 15 13 11 10 8 7 6 5 4 3 2 2 2 3 4 5 4 2 3 4 3 3 4 5 6 7 8 10 11 13 15 17 17 18 20 22 23 23 21 19 19 21 20 20
22 21 21 22 23 24 24 25 25 26 26 27 28 29 29 30 30 30 31 31 32 34 36 38 39 38 38 37 36 34 32 30 29 27 25 24 22 20 19 18 16 14 13 11 10 9 8 7 6 4 3 2 2 2 2 4 4 3 3 4 4 4 4 4 5 6 7 8 10 11 13 15 16 17 17 19 23 24 23 22 20 18 18 18 19
24 23 22 22 23 24 25 26 26 26 27 28 28 29 29 29 29 30 31 32 34 36 39 39 39 38 38 37 36 34 33 31 30 28 26 24 22 20 19 18 16 14 13 12 10 9 8 7 6 4 3 3 2 2 2 2 2 2 3 4 4 4 4 4 4 5 6 8 10 12 13 15 16 17 18 19 21 22 22 22 22 21 20 19 20
25 24 24 23 23 24 25 26 26 26 27 27 27 28 28 28 29 29 31 33 36 39 40 40 39 38 37 37 36 34 33 31 30 28 27 25 23 21 19 18 17 15 14 13 11 9 8 7 6 4 3 3 3 3 3 2 2 4 5 5 4 4 4 4 4 5 6 8 10 13 14 14 16 17 18 19 18 18 19 21 22 22 21 20 19
26 25 26 25 25 25 25 25 26 26 27 28 28 28 28 28 29 31 33 35 37 39 40 39 39 38 37 36 36 34 32 31 30 29 27 26 24 22 20 19 17 16 15 13 11 10 8 7 5 4 3 3 4 4 4 3 4 6 6 5 5 5 5 4 4 5 7 9 11 13 14 15 16 17 18 18 16 16 18 18 17 17 18 18 17
27 26 26 26 28 28 27 27 27 26 27 27 28 29 28 29 31 33 35 37 38 38 39 38 38 38 38 36 35 34 33 32 31 29 28 26 24 23 21 19 18 16 15 13 11 10 8 6 5 4 4 4 5 5 5 5 5 6 6 5 5 6 5 4 5 6 8 10 12 14 14 14 15 16 16 15 14 15 16 15 14 14 15 16 15
27 26 24 25 27 28 28 28 28 27 27 28 28 29 29 30 32 34 36 38 38 38 38 37 37 37 37 37 36 35 34 33 31 30 28 26 24 23 22 20 18 17 15 13 12 9 7 5 5 6 6 6 6 5 5 5 5 5 5 5 6 6 5 5 7 8 9 12 14 13 12 11 12 13 13 12 12 12 12 13 14 14 13 13 13
24 24 23 23 24 26 26 27 28 28 28 29 29 29 29 31 32 33 35 36 36 36 36 37 36 36 36 36 35 34 34 33 32 30 28 26 24 23 21 20 19 18 16 14 12 9 7 7 7 7 7 7 6 6 6 6 5 5 5 6 6 6 6 7 8 10 12 14 13 12 10 10 10 10 10 11 10 9 10 11 12 12 12 12 13
20 21 21 20 22 24 26 27 27 27 28 28 28 28 29 30 32 33 33 34 35 35 35 36 36 36 36 35 34 34 34 33 32 30 28 27 25 23 22 21 20 18 17 15 12 9 9 10 10 9 8 8 7 7 6 6 6 6 6 7 7 7 7 10 10 11 13 14 12 10 9 9 9 9 9 10 9 8 9 10 11 11 12 13 12
19 19 20 20 21 23 24 26 26 26 27 27 27 28 29 30 32 33 33 33 34 35 35 35 36 36 36 35 34 33 32 32 32 30 28 27 25 23 23 21 19 18 18 15 12 11 11 12 11 10 9 9 8 8 7 8 8 7 7 7 8 9 10 12 12 11 12 11 9 7 7 7 7 7 8 8 8 8 10 10 10 11 12 12 12
17 18 19 19 20 21 22 24 25 25 25 26 27 27 28 29 31 33 33 34 34 34 34 35 35 34 34 33 33 32 30 30 30 30 29 27 26 25 23 21 19 18 17 15 14 13 14 14 13 11 11 10 9 9 9 9 9 9 9 9 10 11 12 12 11 10 9 7 6 5 4 4 5 6 7 8 9 10 10 10 11 12 12 12 12
15 15 17 17 19 20 21 23 24 24 25 26 27 28 28 29 31 32 33 33 33 32 33 33 33 32 31 31 31 31 31 30 29 29 28 27 26 25 24 22 20 19 17 15 15 15 15 15 14 13 12 11 11 10 10 10 10 10 10 11 12 12 12 11 10 8 7 6 4 4 3 4 4 5 7 8 10 11 12 12 12 12 11 10 11
12 14 15 16 18 19 20 21 23 24 24 25 26 27 28 29 30 31 32 32 32 32 32 32 32 32 31 31 32 32 32 31 29 28 28 28 28 27 25 23 22 20 18 17 17 17 17 16 15 14 13 13 12 11 11 11 11 12 12 11 12 12 12 11 10 8 6 5 4 4 4 4 4 5 7 9 11 12 12 13 12 11 9 7 8
12 13 15 16 17 18 19 20 21 22 23 25 26 27 28 29 30 31 32 32 33 33 33 33 33 34 34 34 35 35 34 33 31 30 28 28 27 27 25 24 22 20 19 19 20 19 18 16 15 15 15 14 13 11 11 12 13 13 12 11 12 12 12 11 10 8 6 5 5 4 4 4 5 6 8 10 11 10 10 10 11 10 10 7 5
13 14 15 15 16 17 18 19 21 21 22 24 26 27 29 30 31 32 32 33 34 34 34 34 35 35 36 36 37 37 36 34 33 32 29 27 27 26 25 24 22 21 21 22 21 19 18 17 16 16 15 14 13 12 12 13 13 13 12 12 12 12 12 11 10 8 7 7 6 4 4 4 5 6 7 9 9 7 7 8 9 10 11 9 6
13 14 14 15 16 17 18 20 21 21 22 24 25 27 29 31 32 34 35 35 35 34 34 35 36 37 38 38 37 37 37 36 35 34 32 30 28 27 25 24 23 23 25 24 22 20 19 18 17 16 16 15 13 13 14 14 14 13 13 12 12 12 12 11 9 8 8 8 6 6 5 5 5 6 6 7 7 6 5 6 7 9 11 10 7
11 12 13 14 15 17 18 19 20 22 23 25 26 27 29 31 33 36 38 39 39 38 38 39 41 42 43 41 37 35 36 38 40 40 40 37 34 31 30 28 27 28 29 27 25 23 21 20 19 18 17 16 15 14 15 15 14 14 13 12 11 11 11 9 8 7 8 7 6 6 5 5 5 6 5 6 6 6 5 5 6 8 11 9 7
10 11 12 13 15 16 17 19 20 21 22 24 26 27 29 31 33 36 37 38 40 40 41 43 45 46 45 44 41 38 40 43 44 44 43 41 38 35 32 30 31 31 29 28 27 26 23 22 21 20 19 18 17 16 17 16 15 14 13 12 11 10 9 8 8 7 7 7 6 5 5 5 5 5 5 6 6 6 6 5 6 8 9 8 7
9 10 11 12 13 15 17 17 19 20 21 22 24 24 25 27 30 32 33 34 35 35 35 38 41 41 41 43 44 43 44 45 45 45 43 40 38 36 32 30 30 30 27 27 27 26 24 24 23 22 22 20 19 19 19 18 16 14 13 12 11 10 10 9 8 8 7 6 5 5 5 5 5 5 5 6 7 7 6 6 6 7 8 8 7
8 8 9 11 12 13 15 16 17 18 19 20 21 21 21 23 25 28 29 29 31 32 32 32 33 34 35 38 40 41 42 41 41 41 42 41 38 35 32 29 28 27 26 27 27 26 26 26 25 25 24 22 21 21 21 19 18 16 14 13 12 11 10 9 8 8 6 5 4 4 5 5 5 5 5 6 7 7 7 6 6 6 8 8 7
5 6 8 9 10 12 14 15 15 16 17 18 19 20 20 19 20 23 27 28 28 30 31 31 31 31 31 33 34 36 39 39 37 37 40 41 39 33 29 28 27 25 25 26 27 27 27 28 27 27 26 24 23 23 22 21 20 18 16 15 13 12 11 10 9 7 6 4 4 4 4 5 5 5 6 7 8 7 6 6 6 7 8 8 8
4 5 7 8 10 11 13 14 14 15 16 17 18 19 20 18 17 18 22 25 27 28 29 30 30 30 30 30 31 33 35 37 36 34 35 39 37 31 27 27 26 24 25 28 29 29 29 28 28 27 26 25 24 24 24 22 21 19 17 16 14 12 11 10 8 7 5 4 4 4 4 5 5 6 6 7 7 7 6 6 6 7 8 8 8
4 5 6 7 8 10 12 12 13 14 15 16 17 18 20 21 20 18 17 17 20 24 27 29 29 29 29 29 30 30 31 33 33 31 30 32 33 30 26 23 21 23 27 30 31 31 30 29 29 27 27 26 25 25 24 23 22 20 19 17 15 13 12 10 9 7 6 5 4 3 4 5 5 5 6 6 7 7 7 6 6 6 7 7 9
4 4 4 5 7 9 10 11 11 12 13 15 16 17 19 20 21 20 18 16 16 19 22 25 26 28 28 29 29 29 29 29 30 29 27 27 28 26 23 22 24 27 29 31 32 31 30 30 30 29 28 27 26 26 26 24 22 21 20 18 16 15 13 12 10 8 7 6 4 4 4 5 5 5 6 7 7 7 6 6 6 6 6 7 8
3 3 4 4 5 7 8 9 10 11 12 13 14 16 17 18 19 19 19 19 18 16 17 19 22 23 24 25 26 26 25 25 26 26 25 26 26 26 27 29 32 34 34 34 33 32 31 31 31 30 28 27 27 26 26 24 23 21 20 19 18 16 15 13 11 10 9 7 6 5 4 4 4 4 5 7 8 7 7 6 6 7 7 7 7
2 2 3 4 5 5 6 7 8 9 11 12 13 14 16 17 18 18 16 17 17 16 15 17 19 19 19 21 22 21 20 20 20 21 22 24 25 28 32 35 36 36 37 37 37 35 34 33 32 30 29 28 28 27 26 25 23 22 20 19 18 17 16 14 13 12 10 9 8 7 5 3 3 3 5 7 8 7 6 6 7 8 8 9 8
1 2 2 4 5 5 6 7 8 9 10 11 12 14 15 16 17 17 16 16 17 16 16 17 19 20 20 20 20 19 17 16 17 19 22 24 26 30 34 35 34 35 38 39 38 37 36 35 32 31 30 29 28 27 27 25 24 22 21 20 19 17 16 15 13 13 12 10 9 8 5 4 3 3 4 6 8 7 6 6 7 8 9 8 7
1 1 2 3 4 5 6 7 8 9 10 12 13 14 15 16 16 16 16 17 17 17 16 17 21 23 24 23 21 19 18 19 21 24 26 27 29 32 34 34 32 32 35 37 37 37 36 35 33 32 30 29 28 28 27 26 24 23 22 21 19 18 17 16 14 13 12 11 10 8 6 5 4 4 4 6 7 7 6 6 7 8 9 9 8
0 1 2 3 3 5 6 6 8 9 10 12 13 14 15 16 17 17 17 17 17 18 17 18 21 25 26 26 25 24 25 26 28 30 32 33 33 34 35 36 36 33 32 35 38 38 36 34 33 32 30 30 29 29 28 26 25 24 22 21 20 19 17 16 15 13 13 12 11 9 7 6 5 4 4 5 6 6 7 7 7 8 9 10 10
2 2 3 3 4 5 6 7 8 10 11 12 14 15 16 17 17 17 17 17 18 19 19 20 23 26 26 26 26 27 29 31 32 32 34 36 37 38 39 40 41 39 35 34 38 40 38 36 34 32 31 31 30 29 28 27 25 24 23 22 21 19 18 16 15 14 13 12 11 10 8 7 6 5 4 4 5 5 5 6 7 8 9 10 10
3 3 4 5 5 6 8 8 9 10 12 13 14 16 16 17 17 18 19 19 20 20 20 20 21 23 25 25 26 26 29 33 34 35 36 36 37 40 42 42 43 44 41 37 37 39 39 37 35 33 32 32 31 30 29 28 27 26 24 23 21 20 18 17 15 14 13 13 11 10 9 8 7 5 5 4 4 4 5 5 6 7 8 9 9
5 5 5 6 7 7 8 9 10 11 12 13 14 15 16 16 18 19 19 20 21 21 21 20 20 20 22 24 24 25 29 31 31 33 37 38 38 39 42 43 43 44 42 39 38 37 36 35 35 33 33 32 31 30 30 29 27 26 25 23 22 20 19 17 16 15 14 13 11 10 10 9 7 6 5 5 5 5 5 6 6 8 8 9 9
7 7 7 7 8 8 9 10 11 12 13 13 15 16 16 16 18 19 19 21 22 23 22 22 21 20 20 22 23 25 29 29 26 27 34 39 39 39 42 42 42 42 41 40 39 36 33 33 34 33 32 32 31 30 28 27 26 25 24 23 22 20 19 18 16 15 14 13 12 11 11 10 9 8 7 6 5 5 6 6 7 9 9 9 8
8 8 8 9 9 9 10 10 11 12 13 13 13 13 14 16 18 19 20 21 21 22 23 23 22 21 21 22 23 26 29 31 30 32 36 38 39 40 41 41 41 41 41 40 39 36 33 34 34 33 33 32 31 29 28 27 26 25 24 23 21 20 18 17 15 15 15 14 13 12 12 12 11 10 8 7 6 6 7 7 8 9 10 9 9
9 9 10 10 10 11 11 11 12 12 13 13 12 10 10 12 14 17 19 20 20 21 21 21 21 22 21 21 23 26 29 31 33 35 37 38 39 41 41 41 40 40 40 40 38 35 34 35 35 34 33 32 31 29 28 27 26 25 24 22 21 20 18 17 16 17 17 15 14 13 13 13 13 12 10 9 8 8 8 8 8 9 10 10 11
11 11 11 12 12 13 13 13 13 13 14 14 13 12 11 10 10 13 15 16 17 18 18 17 18 20 21 22 24 27 28 30 32 34 36 37 37 39 39 40 39 39 39 39 37 35 35 36 36 34 33 32 30 29 28 27 26 25 24 23 22 21 19 18 18 18 17 16 15 14 14 14 14 14 12 11 10 10 10 10 10 10 10 11 11
12 13 13 13 14 14 14 15 14 13 13 12 12 13 14 14 13 13 12 12 13 14 14 14 15 17 19 22 25 27 28 29 31 32 34 35 35 35 36 37 37 38 38 38 37 37 36 36 35 34 32 31 30 29 28 27 26 25 24 24 23 21 20 19 19 19 18 17 16 15 15 15 16 15 13 12 11 11 12 12 12 12 11 11 11
13 14 14 15 15 15 15 15 14 14 14 13 13 13 13 13 13 12 12 12 13 12 12 13 14 15 16 19 23 26 28 29 31 31 32 33 34 34 34 34 35 35 36 36 37 36 36 36 35 34 33 31 30 30 29 27 26 26 25 24 23 21 20 20 20 19 18 17 17 16 16 17 17 16 14 12 12 12 13 14 14 13 13 13 12
14 14 15 15 16 16 16 16 16 17 17 16 15 15 14 13 13 12 13 13 14 13 13 14 14 14 15 17 19 22 24 27 29 31 31 32 33 32 31 32 33 33 33 34 34 34 35 36 36 34 33 32 31 30 29 28 27 26 25 24 22 22 21 21 20 19 18 18 17 17 16 17 18 17 14 13 12 13 14 15 15 14 15 14 13
14 14 15 15 16 16 17 17 17 17 17 17 17 16 16 15 15 14 15 15 15 15 15 14 14 14 16 16 17 18 20 21 25 29 30 31 31 30 30 30 31 32 32 32 32 32 34 36 36 35 34 33 32 30 29 28 27 26 24 23 23 23 22 21 20 19 18 18 18 17 17 18 19 17 14 13 13 13 14 15 15 15 15 15 14
Wind_Direction
220 219 220 220 221 222 222 222 222 221 218 214 215 217 216 216 216 215 213 210 206 202 201 202 203 211 222 217 206 203 198 191 186 183 181 182 181 179 176 174 175 173 169 169 166 163 165 165 164 161 152 143 121 59 19 10 7 0 355 352 339 328 316 281 274 290 305 317 321 325 331 335 336 339 340 339 341 341 339 339 338 337 337 334 335
217 218 218 219 220 220 221 221 220 219 216 213 215 216 215 215 215 214 212 210 204 199 200 202 204 213 220 212 204 201 195 188 185 183 182 183 181 179 177 176 177 175 171 169 166 165 170 172 171 165 152 136 85 32 9 1 0 353 346 344 335 323 318 301 290 294 303 316 323 326 330 334 333 336 339 338 338 337 335 336 337 336 335 335 334
214 216 216 217 218 218 220 220 219 218 217 216 216 216 215 215 213 212 213 209 200 197 201 202 203 212 213 205 200 197 192 187 184 183 184 184 182 180 178 177 179 177 172 169 167 168 173 175 173 162 136 88 38 9 356 352 352 347 338 335 332 323 318 313 304 299 303 312 321 326 328 331 332 333 335 333 333 333 332 333 335 337 337 336 335
214 215 215 215 215 217 219 219 219 218 217 217 216 214 215 214 210 210 211 204 196 196 200 200 203 209 206 199 196 193 188 185 184 184 186 186 185 182 178 178 181 178 173 170 168 169 173 174 169 148 115 53 7 348 347 347 344 341 336 334 331 324 322 319 310 303 303 307 313 320 325 327 328 330 332 332 331 331 331 331 332 333 336 337 336
218 219 218 216 214 215 217 218 218 218 217 216 215 213 213 211 207 206 205 200 197 197 196 196 202 207 202 196 193 189 186 185 184 184 186 187 186 183 179 179 179 176 173 171 169 170 170 169 163 143 117 30 351 336 337 340 336 335 335 332 329 327 325 317 306 303 300 301 307 316 323 325 324 329 334 335 333 332 331 331 330 331 333 336 337
221 222 221 218 215 214 215 216 217 217 216 215 214 212 211 208 204 202 200 198 198 197 194 196 201 203 198 193 191 188 186 186 186 185 185 186 185 183 180 179 178 175 173 171 169 170 168 165 164 154 158 255 331 330 331 333 332 333 333 332 333 333 326 311 305 307 303 301 308 316 322 326 325 328 334 337 335 333 332 331 331 333 334 335 335
215 216 216 215 214 213 214 215 216 216 215 214 214 212 210 208 204 201 199 197 195 194 195 198 200 199 195 191 189 188 186 187 187 186 185 185 184 183 180 179 177 175 173 171 168 168 166 167 168 170 188 248 316 325 326 325 331 336 335 340 344 337 325 315 311 312 310 311 314 316 320 323 323 323 328 334 334 333 335 332 330 331 333 334 334
212 213 212 211 212 211 212 213 213 215 215 213 212 211 210 208 204 199 197 195 194 194 197 200 198 195 192 190 188 188 188 188 187 186 185 184 184 184 182 180 179 175 172 169 168 167 167 170 175 188 214 269 310 316 314 316 329 338 334 344 352 335 322 316 314 317 319 318 317 316 318 319 321 323 327 335 336 334 337 332 325 325 327 328 331
213 213 212 211 211 211 211 211 210 210 211 210 208 207 206 205 202 197 193 192 194 195 198 201 196 191 189 188 188 189 190 190 189 188 186 184 184 184 182 181 180 176 171 168 168 168 170 177 185 199 244 286 307 308 307 310 320 327 322 338 347 330 318 313 315 321 322 319 315 315 317 317 320 326 328 333 334 329 331 330 323 323 324 323 325
213 214 212 211 211 210 210 210 208 206 206 206 204 203 201 198 195 193 192 193 194 194 196 198 194 189 187 187 188 190 191 192 190 189 188 187 185 184 182 181 179 176 173 170 169 171 173 183 194 209 258 286 297 301 308 319 325 328 321 330 334 319 309 307 312 318 317 314 312 314 315 313 318 324 323 324 327 326 328 329 325 325 327 326 326
213 214 213 212 211 209 207 207 206 205 203 201 200 199 197 194 191 190 192 194 195 195 195 194 190 188 187 188 189 190 191 190 188 187 188 189 187 185 182 181 178 176 175 173 172 174 176 185 198 214 245 270 285 296 315 330 336 343 339 320 314 299 292 296 303 311 308 303 304 307 308 309 314 320 319 321 325 326 326 326 324 325 330 329 325
213 213 212 211 210 208 206 202 199 200 201 201 200 197 193 191 190 191 194 196 196 195 193 191 188 188 188 188 189 190 189 188 187 186 186 187 188 188 185 182 180 177 176 176 176 176 179 188 202 218 235 250 264 282 313 335 346 351 324 308 312 299 283 281 285 294 296 295 297 300 303 307 312 316 320 323 324 322 321 322 323 324 325 323 317
212 212 211 209 208 207 206 201 195 195 198 199 198 195 192 193 195 196 197 197 196 193 191 189 188 188 188 188 189 189 187 186 186 185 184 185 187 188 186 184 181 179 178 178 178 180 184 192 204 216 226 238 254 275 311 336 345 335 303 305 312 302 292 285 281 283 284 287 290 293 301 307 310 312 318 321 320 319 320 320 322 322 317 315 312
209 211 210 208 207 205 202 200 198 197 197 195 194 194 195 196 198 199 199 197 195 192 189 188 187 188 189 189 188 187 186 186 185 184 184 185 187 188 187 184 182 180 179 180 181 183 189 196 204 212 219 233 263 293 313 325 307 270 282 297 296 292 292 291 290 286 281 282 286 291 299 304 305 307 313 317 316 316 318 317 317 317 311 308 308
207 208 209 207 207 205 201 198 197 196 196 195 194 196 197 199 200 201 201 198 194 191 188 188 188 187 188 189 187 186 186 185 185 184 186 187 187 188 187 185 183 181 180 181 183 187 192 197 202 208 218 242 274 293 298 292 264 267 289 302 295 291 287 280 286 289 283 282 286 291 297 300 301 303 307 312 312 311 313 310 309 310 309 308 310
208 208 208 207 207 207 204 201 198 197 196 195 196 199 200 202 204 203 200 195 192 190 189 189 189 187 187 188 187 185 185 186 186 186 188 189 188 187 187 185 183 182 182 183 185 190 195 197 200 210 226 255 275 281 282 279 271 280 298 304 294 295 297 290 297 294 284 283 286 289 291 293 297 300 303 307 309 310 312 308 307 312 313 312 314
209 208 208 208 209 209 208 207 205 203 202 200 201 203 204 205 205 201 196 191 189 190 189 189 189 188 187 188 187 186 185 186 187 188 189 190 190 188 187 185 184 184 183 185 189 194 196 199 207 222 236 255 268 273 276 278 280 288 297 293 284 295 305 299 294 291 286 290 292 290 291 294 296 298 300 303 307 313 315 312 313 320 317 313 314
209 208 209 210 210 210 210 210 210 209 209 208 207 207 207 206 203 198 194 191 190 190 190 189 189 190 190 190 190 190 188 187 188 190 191 192 192 191 188 186 185 185 184 187 192 194 199 211 221 228 238 250 259 266 271 277 283 283 282 277 274 284 294 289 287 293 298 303 302 299 299 299 297 298 300 302 307 313 313 310 315 318 313 310 311
209 209 210 211 211 212 213 213 214 214 214 213 210 208 205 202 199 196 194 193 191 190 190 190 189 190 192 192 192 193 192 189 190 191 191 192 193 191 190 188 186 186 187 190 192 194 206 223 227 229 237 245 252 260 264 269 275 271 262 259 258 264 277 283 286 295 302 306 309 309 305 300 297 298 298 300 305 309 307 309 314 313 308 306 308
208 208 209 209 210 212 214 214 215 215 214 211 207 205 202 200 197 194 193 193 192 191 191 192 191 191 192 192 193 195 195 192 191 192 192 193 193 192 193 192 189 188 190 192 193 198 214 224 226 227 236 243 246 252 255 255 257 252 244 244 250 260 275 282 286 294 301 306 312 310 300 295 298 299 297 300 303 302 305 309 309 307 304 300 300
209 209 210 210 210 211 212 213 213 213 212 209 205 203 203 201 198 194 193 193 193 192 192 193 193 192 191 192 193 194 196 196 194 193 193 194 194 194 196 197 194 193 194 193 196 208 219 223 222 225 234 241 242 242 244 248 249 244 240 242 253 267 278 284 291 296 300 306 308 298 287 286 292 295 296 302 303 302 306 307 303 304 301 293 291
212 213 213 214 214 214 213 212 211 210 209 207 204 203 203 201 199 196 195 194 193 192 192 192 191 191 190 192 193 194 195 198 198 196 194 195 196 197 198 199 198 198 198 198 204 215 220 220 221 226 233 237 236 234 238 245 246 242 244 252 264 275 282 286 291 294 298 305 300 281 271 276 284 290 296 301 303 305 306 303 304 310 305 290 281
212 213 213 214 215 214 213 212 211 210 209 207 205 203 201 200 198 197 195 194 191 190 191 190 190 189 189 191 194 195 196 199 201 199 196 196 198 199 198 200 202 203 205 209 214 217 218 218 221 228 232 231 229 231 237 245 247 247 253 264 274 282 285 285 284 284 292 299 289 268 261 265 274 285 293 300 304 306 306 305 311 320 314 295 283
204 206 208 211 212 212 212 212 211 210 209 207 205 203 200 198 196 196 195 193 190 189 190 190 189 189 190 192 195 197 198 199 201 201 200 199 201 199 198 201 205 207 211 217 219 216 215 219 223 227 227 225 225 232 240 244 247 252 261 271 278 280 279 279 280 284 288 281 257 247 257 263 270 278 287 296 301 302 305 307 314 327 327 306 287
197 200 204 206 208 209 208 209 210 210 209 207 205 202 199 197 195 194 194 193 192 191 190 191 191 191 192 194 196 198 199 199 200 202 202 201 201 200 201 204 207 210 216 221 218 213 214 220 223 222 220 220 223 231 239 244 249 256 265 271 275 275 274 275 280 283 281 266 249 246 257 261 267 276 286 296 297 296 303 310 320 335 342 332 306
194 198 201 202 204 205 203 202 205 207 207 208 207 206 204 200 196 195 195 195 196 195 193 193 194 194 196 198 199 199 199 199 201 202 202 202 202 202 204 208 209 213 220 220 214 210 213 217 218 216 214 218 223 228 235 243 251 257 263 268 270 269 270 274 278 278 274 268 262 260 264 270 280 286 290 295 293 291 303 315 324 335 341 344 339
193 195 197 199 200 201 202 201 201 202 204 205 206 207 207 204 201 198 197 197 197 197 197 196 196 198 200 202 201 201 200 200 201 202 202 202 201 201 204 207 210 214 218 214 206 205 209 210 210 211 213 215 220 226 233 241 247 252 257 263 266 266 269 273 277 276 276 277 277 279 282 288 293 290 288 288 290 291 305 316 320 328 339 346 335
195 195 197 199 199 201 203 204 202 202 204 205 205 207 208 207 206 206 205 204 202 200 201 202 202 204 205 203 201 200 201 202 204 206 207 205 202 201 203 205 209 215 215 208 202 202 205 206 206 208 211 213 217 222 229 235 240 246 251 255 258 263 269 275 279 278 279 283 287 289 291 292 285 283 285 288 289 296 311 318 314 323 340 345 322
195 197 198 200 201 202 204 206 206 206 207 207 209 212 213 213 214 215 216 215 211 208 208 209 211 212 211 208 204 201 203 209 213 214 213 211 208 207 209 212 215 218 215 209 204 202 201 202 204 205 207 210 213 218 225 230 234 239 243 245 250 257 263 269 274 277 282 289 293 291 287 283 281 284 292 295 294 299 311 315 312 324 337 334 309
192 198 200 202 205 205 206 209 210 210 211 211 212 216 219 220 220 220 221 221 218 216 216 217 219 219 217 216 215 213 213 219 221 218 215 214 213 214 216 219 218 217 213 209 206 204 201 200 202 204 206 208 210 215 221 224 227 231 234 235 239 245 252 259 265 270 280 289 291 288 284 281 287 293 296 299 301 303 307 306 304 315 324 318 306
198 205 209 212 215 214 213 214 214 213 215 216 216 218 222 225 226 226 226 226 224 223 223 226 227 226 224 224 225 224 223 225 225 221 217 216 215 215 216 217 217 217 215 210 206 204 204 203 203 204 206 207 210 214 218 220 222 223 224 227 231 235 241 249 255 262 274 283 283 283 281 277 285 295 296 296 299 300 304 306 299 299 308 307 301
220 224 227 228 228 225 223 222 220 218 219 220 220 220 222 226 230 231 230 230 230 229 229 231 232 232 231 232 233 232 230 229 230 229 223 217 214 215 217 219 220 219 216 212 210 209 208 207 206 206 206 207 210 214 217 218 219 219 219 220 224 227 232 240 249 255 265 277 281 281 276 271 279 290 290 290 293 294 296 303 301 298 301 302 297
246 251 248 240 235 231 228 225 224 224 223 224 224 223 223 224 229 234 235 235 235 236 235 235 237 237 237 238 239 238 236 233 233 233 228 221 217 216 218 220 218 212 207 209 212 214 212 210 210 210 209 209 211 214 216 217 216 217 217 218 220 223 227 234 242 249 255 264 272 276 273 273 279 287 287 284 285 286 287 293 298 300 301 302 301
243 254 256 248 241 237 234 230 229 228 228 230 230 229 229 230 231 234 236 235 236 238 239 239 240 241 241 242 242 242 241 237 234 233 230 224 219 216 215 213 209 207 208 213 216 216 214 212 212 213 212 211 212 214 216 216 214 212 213 214 216 219 223 226 230 236 241 245 258 273 277 280 281 284 285 284 280 279 281 283 289 296 300 303 304
237 246 253 252 249 247 245 243 240 237 236 235 235 235 236 238 237 237 236 235 236 239 241 241 241 241 242 243 243 242 242 239 235 233 229 222 214 208 201 197 196 201 209 216 219 219 218 217 216 215 214 213 214 215 215 215 213 211 210 210 211 214 218 219 221 227 231 234 240 250 263 277 283 277 276 278 275 272 274 277 283 289 294 298 301
225 241 247 252 252 254 257 257 255 253 250 247 245 244 243 242 241 240 240 241 241 242 243 245 244 243 242 242 243 243 242 238 234 230 225 217 208 200 196 199 202 202 207 215 219 220 222 222 220 219 216 215 216 217 215 215 214 211 209 209 209 211 214 215 217 222 225 228 233 236 242 261 275 272 271 273 272 269 269 274 281 283 286 292 297
208 233 245 256 260 261 265 267 265 264 261 257 254 252 250 248 246 244 242 243 243 242 242 244 244 241 239 240 239 237 234 230 224 219 215 211 206 204 207 212 212 210 212 218 221 221 222 222 221 220 219 218 217 216 215 214 213 211 209 209 209 211 213 215 217 222 224 226 230 233 236 249 263 266 268 271 273 273 274 279 285 286 287 293 295
197 227 243 257 263 266 270 274 274 270 267 264 260 256 254 252 251 249 246 246 245 243 243 245 242 237 235 236 235 229 223 216 210 209 209 207 206 209 215 218 218 218 221 224 225 225 224 223 221 219 219 219 217 217 216 214 212 210 210 209 209 210 212 214 217 222 227 230 232 235 237 245 257 261 261 265 270 275 277 283 289 289 289 291 286
170 233 251 258 264 268 270 271 272 270 269 267 265 262 258 255 254 252 250 250 249 246 244 244 244 241 238 237 233 223 213 209 207 207 207 208 209 213 218 219 219 223 227 229 229 229 228 226 223 221 220 219 218 217 216 215 213 211 210 210 209 210 211 213 215 220 226 229 230 232 236 242 250 257 257 260 267 275 280 285 288 288 287 285 281
104 273 277 281 282 280 276 273 272 271 271 270 268 265 262 259 258 257 255 254 253 251 248 246 247 247 245 241 235 226 218 216 216 214 213 213 215 217 219 221 223 225 227 230 231 232 230 227 225 222 220 219 218 217 216 215 214 212 212 211 211 212 214 215 215 218 223 226 227 228 231 237 245 255 259 259 264 273 282 285 285 285 284 282 283
332 312 307 304 296 290 287 285 283 280 278 274 271 268 266 265 264 263 262 260 258 257 256 254 254 255 253 249 244 238 233 229 227 224 222 221 221 221 222 225 227 229 230 231 233 232 230 227 225 223 220 219 218 216 215 214 213 213 213 213 213 214 216 217 218 219 223 226 227 226 228 232 240 250 259 267 271 279 286 286 286 287 286 283 282
321 316 315 308 303 302 300 297 293 287 280 275 272 270 270 270 270 268 266 265 265 264 263 261 261 261 260 256 252 247 243 240 238 235 232 229 228 228 228 230 232 235 235 235 237 236 232 228 226 224 221 220 219 216 214 213 213 214 214 215 215 215 216 218 221 223 225 227 228 230 231 234 240 248 260 273 285 294 298 298 297 294 289 287 286
317 316 314 306 302 301 297 293 289 283 279 277 277 276 275 274 273 271 269 268 267 266 265 264 265 265 263 261 257 251 246 244 242 240 238 236 234 234 235 236 238 241 241 241 243 243 237 231 228 226 224 222 222 220 217 216 216 216 216 217 217 218 218 219 222 225 227 229 231 235 240 243 244 248 258 271 287 300 307 307 305 300 292 289 289
319 316 310 303 298 291 285 282 281 279 278 279 279 277 276 275 273 271 270 269 268 267 266 265 265 264 264 262 258 251 246 244 243 242 242 241 240 240 242 243 243 244 244 244 247 247 242 233 229 228 226 224 223 221 220 220 220 219 220 220 221 221 221 221 224 228 231 232 233 237 245 251 251 252 260 268 277 295 307 309 310 307 302 295 289
316 311 305 300 294 288 283 281 278 277 278 279 277 275 274 272 270 269 269 269 269 269 268 267 266 265 263 261 257 253 249 248 248 249 249 248 246 246 248 249 248 248 247 248 249 249 242 233 229 227 226 224 222 220 220 220 220 221 223 223 225 226 226 226 227 231 233 236 238 239 244 251 255 257 263 267 273 288 299 303 306 308 304 299 295
308 303 299 294 291 288 287 285 283 282 280 277 274 273 272 270 269 270 270 270 269 269 269 269 267 266 264 261 260 259 257 255 255 256 256 254 253 252 253 253 252 251 250 250 251 249 242 233 229 227 226 225 223 221 220 220 221 222 225 226 227 230 230 228 229 232 235 238 241 241 244 251 256 260 263 266 271 279 285 290 297 302 301 301 302
304 299 295 293 292 290 290 289 288 286 284 280 276 274 273 271 272 274 273 273 271 271 270 269 266 265 265 264 264 264 264 262 261 261 261 261 260 258 256 255 254 253 252 251 251 248 240 232 229 228 227 226 225 223 222 223 223 224 227 229 230 231 232 230 231 235 238 240 242 243 245 250 255 260 265 267 269 272 277 283 290 295 299 303 305
304 301 298 297 295 292 292 292 290 287 284 281 279 277 277 277 277 277 275 274 272 271 271 270 268 266 266 268 269 270 269 267 266 265 265 265 264 261 259 258 256 255 253 251 250 246 238 232 229 229 227 226 225 224 223 224 225 227 229 231 232 233 233 232 232 235 238 240 241 244 247 251 254 258 264 268 269 270 273 277 282 287 293 298 301
304 303 301 299 297 294 292 292 289 286 284 282 280 279 279 278 276 273 272 273 273 271 269 269 268 268 268 269 271 273 272 270 269 267 266 266 266 264 261 260 258 256 253 250 248 244 237 231 229 229 228 226 225 225 224 225 227 230 232 233 234 234 233 232 232 233 235 237 239 242 245 250 253 257 263 268 270 271 274 275 277 281 286 290 295
304 302 300 297 295 294 292 289 287 285 284 283 281 280 279 277 275 273 272 272 272 270 268 266 267 269 269 269 271 273 272 271 270 270 269 269 269 267 263 260 258 255 252 250 248 243 236 230 228 228 228 227 226 225 225 226 228 231 232 233 233 233 231 231 231 231 232 235 237 239 242 248 252 256 261 266 268 271 274 275 275 277 280 283 288
304 301 297 294 293 292 291 289 288 287 285 284 282 281 279 279 278 277 274 272 272 272 271 270 270 271 271 270 270 271 270 270 270 271 270 271 271 269 265 261 258 254 251 250 247 241 235 230 229 228 228 227 226 226 226 227 229 230 231 231 230 229 228 228 229 229 230 233 236 238 241 245 249 253 257 261 264 269 272 273 274 275 276 278 283